Regional Weather Roundup
Issued by NWS Charleston, SC

Current Version | Previous Version | Graphics & Text | Print | Product List | Glossary On
Versions: 1 2 3 4 5 6 7 8 9 10 11 12 13 14 15 16 17 18 19 20 21 22 23 24 25 26 27 28 29 30 31 32 33 34 35 36 37 38 39 40 41 42 43 44 45 46 47 48 49 50
491 ASUS42 KCHS 252127 RWRCHS Regional Weather Roundup National Weather Service Charleston SC 500 PM EDT FRI MAY 25 2018 NOTE: "fair" indicates few or no clouds below 12,000 feet with no significant weather and/or obstructions to visibility. Not all stations are quality controlled. Use data with caution, especially dewpoint observations. SCZ027-030-031-034>040-042>050-252200- ...Southeast South Carolina... CITY SKY/WX TMP DP RH WIND PRES REMARKS N Charleston PTSUNNY 82 71 69 SE15 30.00F Waterfront Prk N/A 80 73 79 SE10 29.87F Mount Pleasant FAIR 79 72 78 SE9 30.01F Johns Island MOCLDY 81 72 74 E10 30.01F Pinopolis N/A 82 70 65 S5 29.94F Moncks Corner MOCLDY 81 66 61 S9 30.00F Summerville FAIR 81 68 65 SE5 30.01S Beaufort MCAS FAIR 83 73 72 SE7 30.00F Beaufort Arpt FAIR 81 70 69 S9G16 30.00S Hilton Head Is NOT AVBL Walterboro FAIR 79 70 73 CALM 30.01S Allendale FAIR 77 73 88 VRB5 29.98S ...Southern Midlands and Pee Dee... CITY SKY/WX TMP DP RH WIND PRES REMARKS Georgetown FAIR 79 72 78 S8 30.03S Kingstree FAIR 79 73 83 SE8 30.00F Orangeburg FAIR 82 70 66 S9 29.99F Barnwell FAIR 79 73 83 E8 29.99F Aiken CLOUDY 70 70 100 SE6 30.05R Manning FAIR 77 70 78 SE5 30.00F Columbia PTSUNNY 79 72 79 E9 29.99F Sumter PTSUNNY 74 71 89 E3 29.99F Florence FAIR 82 72 71 S8 30.01F Myrtle Beach FAIR 80 71 74 S12G17 30.03F N Myrtle Beach PTSUNNY 79 72 79 S7G16 30.02F $$ GAZ063-065-086>088-099>101-113>116-118-119-134>141-150-252200- ...Southeast Georgia... CITY SKY/WX TMP DP RH WIND PRES REMARKS Savannah Arpt PTSUNNY 84 69 60 S16 29.99F Hunter AAF PTSUNNY 84 71 65 SE15 29.97 Fort Stewart FAIR 85 69 58 SE15 29.96F Statesboro PTSUNNY 83 69 64 SE9G23 29.97S Sylvania MOCLDY 86 72 62 SE7 29.98S HX 92 Claxton FAIR 85 71 63 E10G17 29.97R HX 90 ...CSRA, Central and far Southeast Georgia... CITY SKY/WX TMP DP RH WIND PRES REMARKS Thomson LGT RAIN 73 71 92 CALM 30.04S Augusta-Bush PTSUNNY 76 75 97 N6 29.98S Augusta-Daniel LGT RAIN 76 73 91 NW3 30.00F Swainsboro MOCLDY 84 73 70 S6 29.96S HX 91 Vidalia TSTM 81 70 69 S8G18 29.97R Eastman FAIR 87 62 43 SE13 29.96F Hazlehurst N/A 84 70 62 SE7G21 29.96R Alma FAIR 80 71 74 SE12 29.97F Waycross FAIR 78 75 90 S5 29.97S Jesup FAIR 85 67 54 SE5 29.98S Baxley CLOUDY 73 73 100 CALM 29.97F Brunswick CLOUDY 81 70 69 SE10G18 30.00S Saint Simons FAIR 81 75 82 SE14 30.00S $$ SCZ027-028-034-036>038-045-046-048>050-GAZ119-141-252200- ...Lake and Supplemental Coastal Observations... STATION/POSITION TIME TEMP WIND PRES WAVE SWELL AIR SEA DIR/SP/G HT/PER HT/PER/DIR (UTC) (F) (DEG/KT/KT) (MB) (FT/S) (FT/S/D) Winyah Bay 2045 79 160/ 9 1017.0F Lake Murray 2020 75 60/ 6/ 16 1015.2 ACE Basin NERRS 2045 82 130/ 4 1016.0F Fort Pulaski 2100 80 80 150/ 6/ 8 1016.4 Sapelo Island 2100 81 140/ 9 1016.0 $$ ANZ835-935-AMZ111-154-330-350-352-354-370-450-454-472-252200- ...C-MAN and Buoy Observations... STATION/POSITION TIME TEMP WIND PRES WAVE SWELL AIR SEA DIR/SP/G HT/PER HT/PER/DIR (UTC) (F) (DEG/KT/KT) (MB) (FT/S) (FT/S/D) Buoy 41004 2100 78 170/ 12/ 16 1016.6 Buoy 41008 2050 77 78 160/ 14/ 16 1015.5F 3/ 8 2/130/ 8 Folly Beach CMAN 2100 77 130/ 9/ 10 1017.1F Capers Nearshore 2108 78 78 160/ 10/ 12 1017.2F Fripp Nearshore 2008 78 80 140/ 10/ 14 1016.3F STATION/POSITION TIME TEMP WIND PRES WAVE SWELL AIR SEA DIR/SP/G HT/PER HT/PER/DIR (UTC) (F) (DEG/KT/KT) (MB) (FT/S) (FT/S/D) 5E St. Marys GA 2100 79 N/A 3/ 9 Frying Pan Buoy 2110 78 78 170/ 8/ 10 1016.8 Buoy 41025 2110 77 78 170/ 14/ 17 1017.6 Cape Lookout NC 2100 190/ 10/ 12 1017.5F Buoy 41002 2110 80 170/ 10/ 12 1017.6 Buoy 41010 2110 78 79 140/ 14/ 17 1016.8 St Augustine FL 2100 78 81 140/ 13/ 15 1015.6F $$

USA.gov is the U.S. government's official web portal to all federal, state and local government web resources and services.